Home   Weather   Suzhou   Past weeks

Flag for China Past Weather in Suzhou, Jiangsu, China — Yesterday and Last 2 Weeks

Now
48 °F

Sunny.


Feels Like: 46 °F
Forecast: 42 / 51 °F
Wind: 6 mph from North

Location: Shanghai Hongqiao Airport

Current Time: Nov 21, 2017 at 7:00:18 am

Latest Report: Nov 21, 2017 at 6:30 am


Visibility: 10 mi

Pressure: 30.30 "Hg

Humidity: 82%

Dew Point: 43 °F

Location of SuzhouLocation

Past Weather in Suzhou — Graph

°F

Suzhou Temperature Yesterday

Maximum temperature yesterday: 54 °F (at 2:00 pm)
Minimum temperature yesterday: 46 °F (at 2:30 am)
Average temperature yesterday: 48 °F

High & Low Weather Summary for the Past Weeks

 TemperatureHumidityPressure
High73 °F (Nov 6, 1:00 pm)94% (Nov 13, 8:30 pm)30.42 "Hg (Nov 13, 8:30 pm)
Low39 °F (Nov 19, 4:00 am)33% (Nov 8, 3:30 pm)29.86 "Hg (Nov 17, 1:00 pm)
Average59 °F72%30.16 "Hg
* Reported Nov 6 5:00 am — Nov 21 5:30 am, Suzhou. Weather by CustomWeather, © 2017

Note: Actual official high and low records may vary slightly from our data, if they occured in-between our weather recording intervals... More about our weather records

Advertising

Suzhou Weather History for the Previous 24 Hours

Scroll right to see more
 ConditionsComfort  
Time TempWeatherWind HumidityBarometerVisibility
5:30 am
Tue, Nov 21
46 °FClear.6 mph82%30.30 "Hg10 mi
5:00 am46 °FClear.6 mph82%30.30 "Hg10 mi
4:30 am46 °FClear.3 mph82%30.30 "Hg10 mi
4:00 am45 °FClear.3 mph81%30.30 "Hg10 mi
3:30 am45 °FClear.3 mph81%30.33 "Hg10 mi
3:00 am45 °FClear.1 mph81%30.33 "Hg10 mi
2:30 am45 °FClear.3 mph81%30.33 "Hg10 mi
2:00 am45 °FClear.6 mph76%30.36 "Hg10 mi
1:30 am45 °FClear.6 mph76%30.36 "Hg10 mi
1:00 am45 °FClear.3 mph76%30.36 "Hg10 mi
12:30 am45 °FClear.8 mph76%30.36 "Hg10 mi
12:00 am46 °FClear.6 mph71%30.36 "Hg10 mi
11:30 pm
Mon, Nov 20
46 °FClear.6 mph76%30.36 "Hg10 mi
11:00 pm46 °FClear.6 mph76%30.39 "Hg10 mi
10:30 pm46 °FClear.6 mph76%30.39 "Hg10 mi
10:00 pm46 °FPassing clouds.6 mph76%30.39 "HgN/A
9:30 pm48 °FPassing clouds.8 mph71%30.39 "HgN/A
9:00 pm48 °FPassing clouds.6 mph71%30.39 "HgN/A
8:30 pm48 °FPassing clouds.8 mph71%30.39 "HgN/A
8:00 pm48 °FPassing clouds.6 mph71%30.39 "HgN/A
7:30 pm48 °FPassing clouds.6 mph66%30.39 "HgN/A
7:00 pm48 °FPassing clouds.3 mph66%30.39 "HgN/A
6:30 pm48 °FPassing clouds.3 mph62%30.36 "HgN/A
6:00 pm48 °FClear.3 mph62%30.36 "Hg10 mi
5:30 pm48 °FClear.6 mph58%30.36 "Hg10 mi
5:00 pm48 °FClear.8 mph58%30.33 "Hg10 mi
4:30 pm50 °FPassing clouds.10 mph54%30.33 "HgN/A
4:00 pm50 °FSunny.10 mph58%30.33 "Hg10 mi
3:30 pm50 °FSunny.13 mph54%30.33 "Hg10 mi
3:00 pm52 °FSunny.15 mph54%30.33 "Hg10 mi
2:30 pm52 °FSunny.10 mph58%30.33 "Hg10 mi
2:00 pm54 °FPassing clouds.13 mph51%30.33 "HgN/A
1:30 pm52 °FPassing clouds.10 mph50%30.33 "HgN/A
1:00 pm52 °FPassing clouds.13 mph58%30.36 "HgN/A
12:30 pm52 °FPassing clouds.15 mph54%30.33 "HgN/A
12:00 pm50 °FPassing clouds.10 mph67%30.36 "HgN/A
11:30 am50 °FPassing clouds.10 mph67%30.36 "HgN/A
11:00 am50 °FPassing clouds.8 mph67%30.39 "HgN/A
10:30 am48 °FScattered clouds.8 mph76%30.39 "HgN/A
10:00 am48 °FScattered clouds.8 mph82%30.39 "HgN/A
9:30 am48 °FSunny.8 mph82%30.39 "Hg10 mi
9:00 am48 °FSunny.10 mph76%30.42 "Hg10 mi
8:30 am48 °FSunny.10 mph82%30.39 "Hg10 mi
8:00 am46 °FSunny.8 mph87%30.39 "Hg10 mi
7:30 am46 °FPartly sunny.8 mph87%30.36 "HgN/A
7:00 am46 °FOvercast.8 mph87%30.36 "HgN/A
Weather by CustomWeather, © 2017

See weather overview